Location: *
(28.3744°N, 81.5492°W)
Time: 13:36:16
(UTC+00:00)

Cosmos 1544 Rocket - Pass Details

Date: 15 June 2025
Orbit: 598 x 625 km, 82.5° (Epoch: 15 July)

Event Time Altitude Azimuth Distance (km) Brightness Sun altitude
Rises 08:32:19 0° 353° (N) 2,844 7.5 -21.7°
Reaches altitude 10° 08:34:32 10° 353° (N) 1,938 6.6 -21.3°
Maximum altitude 08:38:49 86° 269° (W) 603 3.3 -20.6°
Enters shadow 08:40:12 43° 179° (S) 847 3.9 -20.4°
